Regional Weather Roundup
Issued by NWS Huntsville, AL

Home | Current Version | Previous Version | Text Only | Print | Product List | Glossary On
Versions: 1 2 3 4 5 6 7 8 9 10 11 12 13 14 15 16 17 18 19 20 21 22 23 24 25 26 27
000
ASUS44 KHUN 050310
RWRHUN

WEATHER ROUNDUP FOR THE TENNESSEE VALLEY
NATIONAL WEATHER SERVICE HUNTSVILLE AL
1000 PM CDT WED MAY 04 2016

ALZ001>004-050400-
NORTHWEST ALABAMA

CITY           SKY/WX    TMP DP  RH WIND       PRES   REMARKS
SHOALS AIRPORT CLEAR     59  50  72 CALM      29.83R
$$

ALZ005>007-016-050400-
NORTH CENTRAL ALABAMA

CITY           SKY/WX    TMP DP  RH WIND       PRES   REMARKS
DECATUR AP     CLEAR     56  50  80 N5        29.82R
HUNTSVILLE AP  CLEAR     57  50  77 N3        29.82R
HUN NWS/UAH      N/A     56  49  78 NW3         N/A
MERIDIANVILLE  CLEAR     50  46  87 CALM      29.82R
REDSTONE ARSN  CLEAR     53  50  89 N5        29.81R
VINEMONT AP    FAIR      53  52  97 CALM      29.84R FOG
$$

ALZ008>010-050400-
NORTHEAST ALABAMA

CITY           SKY/WX    TMP DP  RH WIND       PRES   REMARKS
ALBERTVILLE    PTCLDY    55  55 100 CALM      29.81R
FORT PAYNE     CLOUDY    54  50  87 CALM      29.80R
SCOTTSBORO AP  CLOUDY    54  54 100 CALM      29.82R
SCOTTSBORO HCN   N/A     54 N/A N/A MISG        N/A
VALLEY HEAD      N/A     52 N/A N/A MISG        N/A
$$

TNZ076-096-097-050400-
SOUTHEASTERN MIDDLE TENNESSEE

CITY           SKY/WX    TMP DP  RH WIND       PRES   REMARKS
TULLAHOMA      CLEAR     48  46  93 NW5       29.83R
WINCHESTER     CLEAR     48  46  93 CALM      29.82R
$$

...SURROUNDING SITES...

CITY           SKY/WX    TMP DP  RH WIND       PRES   REMARKS
ATLANTA        CLOUDY    56  52  86 W7        29.77S
ANNISTON       CLOUDY    58  55  90 W6        29.81R
BIRMINGHAM     CLEAR     58  56  93 CALM      29.84R
CHATTANOOGA    PTCLDY    54  51  90 CALM      29.80R
DALTON         CLOUDY    52  52 100 W3        29.79S
GADSDEN        MOCLDY    57  56  96 CALM      29.82R
GOLDEN TRNGL     N/A    N/A N/A N/A MISG        N/A
HALEYVILLE     FAIR      54  52  94 CALM      29.85R FOG
JACKSON TN     PTCLDY    57  44  62 N9        29.86R
MEMPHIS        PTCLDY    65  45  48 N7        29.86R
NASHVILLE      MOCLDY    56  40  55 NW9       29.84R
OXFORD MS      FAIR      55  48  76 CALM      29.86R
ROME           CLOUDY    56  53  90 N5        29.79R
SAVANNAH       PTCLDY    54  50  87 N6        29.83R
TUPELO         CLEAR     57  54  89 CALM      29.82R
TUSCALOOSA     PTCLDY    61  57  87 N3        29.82R
$$

...GULF COAST WEATHER...

CITY           SKY/WX    TMP DP  RH WIND       PRES   REMARKS
GULFPORT       CLEAR     63  55  75 CALM      29.87R
PASCAGOULA     CLEAR     57  55  93 W3        29.87R
MOBILE         CLEAR     64  51  62 SW5       29.86R
GULF SHORES    CLEAR     59  56  90 N3        29.85R
PENSACOLA      CLEAR     62  50  64 W5        29.84R
DESTIN         CLEAR     71  52  50 CALM      29.82R
PANAMA CITY    CLEAR     65  50  60 NW6       29.81R
APPALACHICOLA  CLEAR     64  51  62 NW7       29.80R
$$





USA.gov is the U.S. government's official web portal to all federal, state and local government web resources and services.